Weather History for KFBL - May, 2013

Change the Weather History Date:

Saturday, May 25, 2013

  Actual Average Record
Temperature  
Mean Temperature 53 °F -  
Max Temperature 55 °F 71 °F 94 °F (1978)
Min Temperature 51 °F 48 °F 33 °F (2008)
Degree Days  
Heating Degree Days 12    
Growing Degree Days 3 (Base 50)    
Moisture  
Dew Point 48 °F    
Average Humidity 82    
Maximum Humidity 100    
Minimum Humidity 72    
Precipitation  
Precipitation 0.02 in - - ()
Sea Level Pressure  
Sea Level Pressure 30.24 in    
Wind  
Wind Speed 10 mph (ESE)    
Max Wind Speed 22 mph    
Max Gust Speed 31 mph    
Visibility 10 miles    
Events Rain    
Averages and records for this station are not official NWS values.
T = Trace of Precipitation, MM = Missing Value Source: NWS Daily Summary

Daily Weather History Graph

Daily Weather History Graph

Search for Another Location

Airport or City:

Trip Planner

Search our weather history database for the weather conditions in past years. The results will help you decide how hot, cold, wet, or windy it might be!

Date:

Astronomy

May. 25, 2013 Rise Set
Actual Time 5:36 AM CDT 8:44 PM CDT
Civil Twilight 5:01 AM CDT 9:19 PM CDT
Nautical Twilight 4:16 AM CDT 10:04 PM CDT
Astronomical Twilight 3:22 AM CDT 10:59 PM CDT
Moon 9:32 PM CDT (5/25) 6:04 AM CDT (5/25)
Length of Visible Light 16h 17m
Length of Day
15h 07m
Full, 100% of the Moon is Illuminated
May 25
Full
May 31
Last Quarter
Jun 8
New
Jun 16
First Quarter
Jun 23
Full

Hourly Weather History & Observations

Time (CDT) Temp. Dew Point Humidity Pressure Visibility Wind Dir Wind Speed Gust Speed Precip Events Conditions
12:14 AM 53.6 °F 50.0 °F 88% 30.24 in 10.0 mi East 4.6 mph - N/A Rain Rain
12:34 AM 53.6 °F 50.0 °F 88% 30.25 in 7.0 mi East 5.8 mph - 0.02 in Rain Rain
12:54 AM 53.6 °F 50.0 °F 88% 30.24 in 10.0 mi ESE 6.9 mph - 0.02 in   Overcast
1:13 AM 53.6 °F 50.0 °F 88% 30.25 in 10.0 mi ESE 5.8 mph - N/A   Overcast
1:34 AM 53.6 °F 51.8 °F 94% 30.25 in 10.0 mi ESE 3.5 mph - N/A   Overcast
1:54 AM 53.6 °F 51.8 °F 94% 30.25 in 10.0 mi SSE 4.6 mph - N/A   Overcast
2:13 AM 53.6 °F 51.8 °F 94% 30.24 in 10.0 mi East 4.6 mph - N/A   Overcast
2:34 AM 53.6 °F 51.8 °F 94% 30.23 in 10.0 mi East 4.6 mph - N/A Rain Light Rain
2:54 AM 53.6 °F 51.8 °F 94% 30.24 in 10.0 mi ENE 3.5 mph - N/A   Overcast
3:13 AM 53.6 °F 50.0 °F 88% 30.22 in 10.0 mi East 5.8 mph - N/A   Overcast
3:34 AM 53.6 °F 50.0 °F 88% 30.21 in 10.0 mi ESE 9.2 mph - N/A   Overcast
3:54 AM 53.6 °F 48.2 °F 82% 30.22 in 10.0 mi ESE 10.4 mph - N/A   Overcast
4:13 AM 53.6 °F 48.2 °F 82% 30.22 in 10.0 mi East 9.2 mph - N/A   Overcast
4:34 AM 53.6 °F 48.2 °F 82% 30.24 in 10.0 mi East 8.1 mph - N/A   Overcast
4:54 AM 53.6 °F 48.2 °F 82% 30.23 in 10.0 mi East 8.1 mph - N/A   Overcast
5:14 AM 53.6 °F 48.2 °F 82% 30.23 in 10.0 mi East 6.9 mph - N/A   Overcast
5:34 AM 53.6 °F 48.2 °F 82% 30.21 in 10.0 mi East 9.2 mph - N/A   Overcast
5:54 AM 53.6 °F 48.2 °F 82% 30.21 in 10.0 mi ESE 10.4 mph 19.6 mph N/A   Overcast
6:14 AM 53.6 °F 48.2 °F 82% 30.23 in 10.0 mi ESE 12.7 mph 19.6 mph N/A   Overcast
6:34 AM 53.6 °F 46.4 °F 77% 30.24 in 10.0 mi ESE 11.5 mph 19.6 mph N/A   Overcast
6:54 AM 53.6 °F 46.4 °F 77% 30.23 in 10.0 mi ESE 11.5 mph 18.4 mph N/A   Overcast
7:14 AM 53.6 °F 48.2 °F 82% 30.23 in 10.0 mi East 11.5 mph 17.3 mph N/A   Overcast
7:34 AM 53.6 °F 46.4 °F 77% 30.24 in 10.0 mi ESE 13.8 mph 17.3 mph N/A   Overcast
7:54 AM 53.6 °F 46.4 °F 77% 30.23 in 10.0 mi ESE 17.3 mph 23.0 mph N/A   Overcast
8:14 AM 53.6 °F 46.4 °F 77% 30.23 in 10.0 mi ESE 17.3 mph 23.0 mph N/A   Overcast
8:34 AM 55.4 °F 46.4 °F 72% 30.24 in 10.0 mi ESE 17.3 mph - N/A   Overcast
8:54 AM 55.4 °F 48.2 °F 77% 30.23 in 10.0 mi ESE 20.7 mph 25.3 mph N/A   Overcast
9:14 AM 55.4 °F 48.2 °F 77% 30.23 in 10.0 mi SE 19.6 mph 31.1 mph N/A   Overcast
9:34 AM 55.4 °F 48.2 °F 77% 30.23 in 10.0 mi SE 18.4 mph 26.5 mph N/A   Overcast
9:54 AM 55.4 °F 48.2 °F 77% 30.23 in 10.0 mi ESE 18.4 mph 25.3 mph N/A   Overcast
10:14 AM 55.4 °F 48.2 °F 77% 30.22 in 10.0 mi SE 17.3 mph 27.6 mph N/A   Overcast
10:34 AM 55.4 °F 48.2 °F 77% 30.22 in 10.0 mi SE 17.3 mph 26.5 mph N/A   Overcast
10:54 AM 55.4 °F 48.2 °F 77% 30.23 in 10.0 mi SE 19.6 mph 25.3 mph N/A   Overcast
11:14 AM 55.4 °F 48.2 °F 77% 30.24 in 10.0 mi SE 15.0 mph 19.6 mph N/A   Overcast
11:34 AM 55.4 °F 48.2 °F 77% 30.26 in 10.0 mi ESE 18.4 mph 21.9 mph N/A   Overcast
11:54 AM 55.4 °F 48.2 °F 77% 30.27 in 10.0 mi SE 12.7 mph 17.3 mph N/A   Overcast
12:14 PM 53.6 °F 48.2 °F 82% 30.27 in 10.0 mi SE 19.6 mph 24.2 mph N/A   Overcast
12:34 PM 51.8 °F 48.2 °F 88% 30.28 in 2.5 mi SE 17.3 mph 25.3 mph N/A   Overcast
12:54 PM 51.8 °F 51.8 °F 100% 30.28 in 2.0 mi SE 15.0 mph 21.9 mph N/A   Overcast
1:14 PM 51.8 °F 51.8 °F 100% 30.27 in 3.0 mi ESE 16.1 mph 20.7 mph N/A   Overcast
1:34 PM 51.8 °F 51.8 °F 100% 30.27 in 5.0 mi ESE 15.0 mph 20.7 mph N/A   Overcast
1:54 PM 53.6 °F 51.8 °F 94% 30.26 in 10.0 mi ESE 12.7 mph 19.6 mph N/A   Overcast
2:14 PM 55.4 °F 51.8 °F 88% 30.25 in 10.0 mi ESE 19.6 mph 25.3 mph N/A   Overcast
2:34 PM 53.6 °F 50.0 °F 88% 30.25 in 10.0 mi SE 21.9 mph 26.5 mph N/A   Overcast
2:54 PM 53.6 °F 48.2 °F 82% 30.25 in 10.0 mi ESE 19.6 mph 26.5 mph N/A   Overcast
3:14 PM 53.6 °F 50.0 °F 88% 30.25 in 10.0 mi ESE 11.5 mph 21.9 mph N/A   Overcast
3:34 PM 53.6 °F 48.2 °F 82% 30.25 in 10.0 mi ESE 18.4 mph 25.3 mph N/A   Overcast
3:54 PM 53.6 °F 48.2 °F 82% 30.25 in 10.0 mi ESE 11.5 mph 20.7 mph N/A   Overcast
4:13 PM 53.6 °F 48.2 °F 82% 30.25 in 10.0 mi ESE 15.0 mph 20.7 mph N/A   Overcast
4:34 PM 53.6 °F 48.2 °F 82% 30.25 in 10.0 mi ESE 15.0 mph 21.9 mph N/A   Overcast
4:54 PM 53.6 °F 48.2 °F 82% 30.24 in 10.0 mi ESE 18.4 mph 25.3 mph N/A   Overcast
5:13 PM 53.6 °F 48.2 °F 82% 30.24 in 10.0 mi ESE 12.7 mph 19.6 mph N/A   Overcast
5:34 PM 53.6 °F 46.4 °F 77% 30.24 in 10.0 mi ESE 13.8 mph 20.7 mph N/A   Overcast
5:54 PM 53.6 °F 48.2 °F 82% 30.24 in 10.0 mi ESE 17.3 mph 21.9 mph N/A   Overcast
6:14 PM 53.6 °F 48.2 °F 82% 30.24 in 10.0 mi ESE 16.1 mph 19.6 mph N/A   Overcast
6:34 PM 53.6 °F 46.4 °F 77% 30.23 in 10.0 mi ESE 16.1 mph 19.6 mph N/A   Overcast
6:54 PM 53.6 °F 46.4 °F 77% 30.23 in 10.0 mi East 10.4 mph - N/A   Overcast
7:14 PM 53.6 °F 46.4 °F 77% 30.22 in 10.0 mi ESE 11.5 mph 17.3 mph N/A   Overcast
7:34 PM 53.6 °F 48.2 °F 82% 30.24 in 10.0 mi ESE 8.1 mph 18.4 mph N/A   Overcast
7:54 PM 53.6 °F 48.2 °F 82% 30.23 in 10.0 mi ESE 11.5 mph 17.3 mph N/A   Overcast
8:14 PM 53.6 °F 46.4 °F 77% 30.23 in 10.0 mi East 9.2 mph - N/A   Overcast
8:34 PM 53.6 °F 46.4 °F 77% 30.23 in 10.0 mi ESE 8.1 mph 16.1 mph N/A   Overcast
8:54 PM 53.6 °F 46.4 °F 77% 30.23 in 10.0 mi ESE 12.7 mph - N/A   Overcast
9:14 PM 53.6 °F 46.4 °F 77% 30.23 in 10.0 mi ESE 10.4 mph - N/A   Overcast
9:34 PM 53.6 °F 46.4 °F 77% 30.24 in 10.0 mi ESE 10.4 mph - N/A   Overcast
9:54 PM 53.6 °F 46.4 °F 77% 30.24 in 10.0 mi ESE 8.1 mph - N/A   Overcast
10:14 PM 53.6 °F 48.2 °F 82% 30.24 in 10.0 mi ESE 8.1 mph - N/A   Overcast
10:34 PM 53.6 °F 46.4 °F 77% 30.24 in 10.0 mi ESE 12.7 mph 18.4 mph N/A   Overcast
10:54 PM 53.6 °F 46.4 °F 77% 30.24 in 10.0 mi ESE 10.4 mph 16.1 mph N/A   Overcast
11:14 PM 51.8 °F 44.6 °F 76% 30.24 in 10.0 mi ESE 10.4 mph - N/A   Overcast
11:34 PM 51.8 °F 44.6 °F 76% 30.23 in 10.0 mi East 9.2 mph - N/A   Overcast
11:54 PM 51.8 °F 44.6 °F 76% 30.22 in 10.0 mi ESE 8.1 mph - N/A   Mostly Cloudy